Regional Weather Roundup
Issued by NWS Upton, NY

Current Version | Previous Version | Text Only | Print | Product List | Glossary Off
Versions: 1 2 3 4 5 6 7 8 9 10 11 12 13 14 15 16 17 18 19 20 21 22 23 24 25 26 27 28 29 30 31 32 33 34 35 36 37 38 39 40 41 42 43 44 45 46 47 48 49 50
523 ASUS41 KOKX 261609 RWROKX REGIONAL WEATHER ROUNDUP NATIONAL WEATHER SERVICE NEW YORK NY 1200 PM EDT FRI MAY 26 2017 NOTE: "FAIR" INDICATES FEW OR NO CLOUDS BELOW 12,000 FEET WITH NO SIGNIFICANT WEATHER AND/OR OBSTRUCTIONS TO VISIBILITY. NYZ071-072-176-178-NJZ106-104-261700- NEW YORK CITY METRO AREA CITY SKY/WX TMP DP RH WIND PRES REMARKS Central Park CLOUDY 68 58 70 VRB3 29.61S Wall St Helipt CLOUDY 69 58 67 VRB7 29.60S Bronx Bot Gard N/A 70 55 60 W17 29.59S LaGuardia APRT PTSUNNY 70 57 63 W12 29.58S Kennedy INTL PTSUNNY 71 61 70 W12 29.60S Breezy Point N/A 64 N/A N/A W7 N/A Newark/Liberty PTSUNNY 72 57 59 SW17G25 29.58S Teterboro CLOUDY 70 59 68 W10 29.57F $$ NYZ177-179-078>081-261700- LONG ISLAND NEW YORK CITY SKY/WX TMP DP RH WIND PRES REMARKS Jones Beach N/A 63 N/A N/A W9G15 N/A Matinecock PT NOT AVBL Farmingdale PTSUNNY 68 57 68 W13G23 29.59R MacArthur/ISP PTSUNNY 69 58 67 W13G22 29.58R Shirley CLOUDY 65 58 78 W9 29.59R Mt Sinai Harb N/A N/A N/A N/A NW5 N/A Westhampton CLOUDY 63 53 70 W12 29.60R East Hampton CLOUDY 57 51 80 NW9 29.58R Montauk N/A 56 51 84 W6 29.60R $$ NYZ052-065-067-261700- HUDSON VALLEY CITY SKY/WX TMP DP RH WIND PRES REMARKS White Plains PTSUNNY 68 58 70 NW15G21 29.58R Larchmont Harb N/A 64 N/A N/A SW12 N/A Croton O-T Hud N/A 66 N/A N/A CALM N/A Newburgh PTSUNNY 66 61 82 W12G21 29.59S Montgomery MOSUNNY 69 57 65 NW17G25 29.57S Poughkeepsie CLOUDY 63 57 81 SW7 29.56F Albany CLOUDY 59 53 80 N3 29.58R $$ NJZ001-105-106-008-010-013-015-019>022-104-261700- NEW JERSEY CITY SKY/WX TMP DP RH WIND PRES REMARKS Newark/Liberty PTSUNNY 72 57 59 SW17G25 29.58S Teterboro CLOUDY 70 59 68 W10 29.57F Caldwell PTSUNNY 73 56 54 W10G20 29.59F Somerville PTSUNNY 70 58 65 VRB7 29.60R Linden PTSUNNY 72 58 60 W13G22 29.60S Perth Amboy N/A 68 N/A N/A W18G25 N/A Sussex CLOUDY 70 55 59 W13G21 29.60S Andover N/A 68 55 63 VRB6 29.61S Trenton CLOUDY 70 57 63 W12G21 29.63S Millville CLOUDY 70 60 70 W15G25 29.68S Atlantic City CLOUDY 72 57 59 W15G24 29.66R Wrightstown PTSUNNY 72 59 64 W14 29.62S Toms River CLOUDY 71 58 63 W13 29.65R Belmar PTSUNNY 71 58 63 W13G21 29.63R $$ PAZ047>061-062-071-261700- EASTERN PENNSYLVANIA CITY SKY/WX TMP DP RH WIND PRES REMARKS Philadelphia PTSUNNY 73 55 53 W15G24 29.66S Allentown CLOUDY 69 56 62 W16G24 29.64R Scranton CLOUDY 65 56 72 W8 29.65S $$ CTZ002-004>006-009-010-012-RIZ004-006-007-MAZ004-011-015-261700- SOUTHERN NEW ENGLAND IN CT CITY SKY/WX TMP DP RH WIND PRES REMARKS Bradley INTL CLOUDY 57 53 86 CALM 29.56R Hartford CLOUDY 58 53 84 N6 29.57R Danbury PTSUNNY 63 58 83 W7 29.58F Wtrbury/Oxford CLOUDY 57 52 82 NW8 29.59R Bridgeport CLOUDY 65 56 72 W9 29.58R Meriden CLOUDY 60 54 80 NW6 29.57R New Haven CLOUDY 60 53 77 W9 29.58R Chester CLOUDY 59 54 82 NW6 29.57R Groton CLOUDY 60 51 72 W7 29.56R Wilimantic PTSUNNY 60 52 74 VRB6 29.56S IN RI CITY SKY/WX TMP DP RH WIND PRES REMARKS Providence LGT RAIN 53 51 93 NW9 29.55R Block Island CLOUDY 55 52 89 W13 29.58R Westerly PTSUNNY 58 52 80 VRB6 29.56R IN MA CITY SKY/WX TMP DP RH WIND PRES REMARKS Boston CLOUDY 55 51 86 NW15 29.52R Worcester LGT RAIN 52 48 86 NW7 29.54R Westfield LGT RAIN 56 54 93 CALM 29.56R FOG Provincetown CLOUDY 50 50 100 NW18 29.48R FOG Nantucket CLOUDY 55 54 96 W24G33 29.49R $$ ANZ330-335-338-340-345-350-353-355-261700- COASTAL MARINE OBSERVATIONS STATION/POSITION TIME SKY/WX TEMP WIND PRES VSBY WAVE AIR SEA DIR/SP/G HT/PER (UTC) (F) (DEG/KT/KT) (MB) (MI) (FT/S) NY HARB ENTRANCE 1450 58 56 260/ 4/ 6 1002.3 5/11 20 S FIRE ISLAND 1550 57 55 260/ 8/ 10 1002.2 6/10 GREAT SOUTH BAY 1515 60 62 240/ 10/ 12 N/A 23 SSW MONTAUK P 1450 54 54 1001.6 8/10 15 E BARNEGAT LI 1530 59 N/A 7/10 HUDSON CANYON 1450 57 54 250/ 16/ 19 1002.8 7/ 8 KINGS POINT 1542 64 57 290/ 8/ 11 1001.8 EXECUTION ROCKS 1545 66 N/A CENTRAL LI SOUND NOT AVBL EASTERN LI SOUND NOT AVBL ROBBINS REEF 1542 69 300/ 14/ 21 1002.3 $$ >>>>>>>>>>>>>>>>>>>>>>>>>>>> KEY <<<<<<<<<<<<<<<<<<<<<<<<<<< > < > SKY/WX - Sky Condition/Present Weather < > TMP - Temperature in Fahrenheit < > DP - Dew Point in Fahrenheit < > RH - Relative Humidity in Percent < > WIND - Direction (from) and Speed in MPH < > PRES - Mean Sea Level Pressure (inches of Hg) < > WCI - Wind Chill Index < > VSB - VISIBILITY IN MILES < > HX - HEAT INDEX < > TC - TEMPERATURE IN CELSIUS < > VRB - VARIABLE WIND DIRECTION < > < >>>>>>>>>>>>>>>>>>>>>>>>>>>> KEY <<<<<<<<<<<<<<<<<<<<<<<<<<<

USA.gov is the U.S. government's official web portal to all federal, state and local government web resources and services.